ARIANE 6 R/B, 60239

Orbit data source: Space-Track

ARIANE 6 R/B, 60239 is space debris in LEO originally from a launch on Tue, 09 Jul 2024 UTC via an ARIANE 62 launch vehicle from the French Guiana (FRGUI). Debris objects in space refer to the collection of defunct objects orbiting the Earth. Examples of debris include non-operational satellites, rocket bodies, and fragments generated from explosions, collisions, or faulty payload assembly.

Loading next visibility...
Identifier
60239, 2024-128E
Orbit
LEO
Country
Flag of FRFR
Related business
Manufacturer
ArianeGroup
Mission
Spacecraft
Bus & Motor
ARI6DP, Unknown motor
Mass
~7,711 kg wet, 1,600 kg dry
Launch date (UTC)
2024-07-09 (1 year ago)
Launch vehicle
ARIANE 62
Launch site
French Guiana (FRGUI)
Object type
Payload
Rocket body
Debris
Shape & HBR
Cyl + Trunc Cone, 7.0 m
Radar Cross Section
72.787 m², Large (>1 m²)

Expand to show TLE details & history
Last TLE update: 18 hours ago

TLE from 18 hours ago
0 ARIANE 6 R/B
1 60239U 24128E   25259.02645054  .00001315  00000-0  12039-3 0  9994
2 60239  62.0107 102.7579 0058220  79.7831 280.9817 14.99307558 64906
Epoch: 2025-09-16T00:38Z
TLE epoch observation values (Epoch: 2025-09-16T00:38:05.326Z)
Latitude
-0.00006°
Longitude
98.01302°
Altitude
563.326 km
Speed
7.584 km/s
True Right ascension
06h 51m 01s
True Declination
0° 00' 00"
Sunlit
Object was in daylight at epoch
Visualization orbit readout
Latitude
Unknown
Longitude
Unknown
Altitude
Unknown
Speed
Unknown
Apparent Right ascension
Unknown
Apparent Declination
Unknown
Sunlit
N/A
Visualization observer readout
Local Sidereal Time
10:53:24
Azimuth
Unknown
Elevation
Unknown
Doppler factor
Unknown
Orbital elements
Apogee altitude
608.404 km
Perigee altitude
527.523 km
Semi-major axis
6,946.1 km
Eccentricity
0.00582
Inclination
62.0107°
RAAN
102.7579°
Arg. of periapsis
79.7831°
True anomaly
280.32587°
Mean anomaly
280.9817°
Eccentric anomaly
280.65387°
Mean motion
3.74914 °/min
Orbital period
96.02 mins
BSTAR
0.00012039
Loading maneuver chart data...
Computing Atmospheric mass density...
Loading historical data...
Loading historical data...
Loading historical data...
Loading historical data...
Loading historical data...
Loading historical data...
Loading historical data...

Documentation

Showing up to 5 results
|